Temp
-22 -22 -22 -22 -22 -22 -22 -22 -22 -22 -22 -22 -22 -22 -22 -22 -22 -23 -23 -23 -23 -23 -23 -23 -23 -23 -23 -23 -23 -23 -23 -23 -23 -24 -24 -24 -24 -24 -25 -25 -25 -24 -24 -25 -25 -25 -25 -25 -25 -25 -25 -25 -25 -25 -25 -25 -25 -25 -25 -25 -25 -25 -25
-22 -22 -22 -22 -22 -22 -22 -22 -22 -22 -22 -22 -22 -22 -22 -22 -23 -23 -23 -23 -23 -23 -23 -23 -23 -23 -23 -23 -23 -23 -23 -23 -24 -24 -24 -24 -25 -25 -25 -25 -25 -25 -25 -25 -25 -25 -25 -25 -25 -25 -25 -25 -25 -25 -25 -25 -25 -25 -25 -25 -25 -25 -25
-22 -22 -22 -22 -22 -22 -22 -22 -22 -22 -22 -22 -22 -23 -23 -23 -23 -23 -23 -23 -24 -24 -24 -24 -24 -24 -24 -24 -24 -24 -24 -24 -24 -24 -25 -25 -25 -25 -25 -25 -25 -25 -25 -25 -25 -26 -26 -26 -26 -25 -26 -26 -26 -26 -26 -26 -26 -25 -26 -26 -26 -26 -26
-22 -22 -22 -23 -23 -23 -22 -22 -22 -23 -23 -23 -23 -23 -23 -23 -23 -23 -24 -24 -24 -24 -24 -24 -24 -24 -24 -24 -24 -24 -24 -24 -24 -25 -25 -25 -25 -25 -25 -25 -25 -26 -25 -25 -26 -26 -26 -26 -26 -26 -26 -26 -26 -26 -26 -26 -26 -26 -26 -26 -26 -26 -26
-22 -23 -23 -23 -23 -23 -23 -23 -23 -23 -23 -23 -23 -24 -24 -24 -24 -24 -24 -24 -24 -24 -24 -24 -24 -25 -25 -25 -25 -25 -25 -25 -25 -25 -25 -25 -25 -26 -26 -26 -26 -26 -26 -26 -26 -26 -26 -26 -26 -26 -26 -26 -26 -26 -26 -26 -26 -26 -26 -26 -26 -26 -27
-23 -23 -23 -23 -23 -24 -24 -24 -24 -24 -24 -24 -24 -24 -24 -24 -24 -24 -24 -24 -24 -24 -24 -25 -25 -25 -25 -25 -25 -25 -25 -25 -26 -26 -26 -26 -26 -26 -26 -26 -26 -26 -26 -26 -26 -26 -26 -26 -27 -26 -27 -27 -27 -26 -26 -26 -26 -26 -26 -26 -27 -27 -27
-23 -23 -24 -24 -24 -24 -24 -25 -25 -25 -25 -25 -25 -25 -25 -25 -25 -25 -25 -25 -25 -25 -25 -25 -25 -25 -25 -25 -26 -26 -26 -26 -26 -26 -26 -26 -26 -26 -26 -26 -26 -26 -26 -26 -26 -26 -26 -27 -27 -27 -27 -27 -27 -27 -27 -27 -27 -27 -27 -27 -27 -27 -27
-24 -24 -24 -24 -24 -25 -25 -25 -25 -25 -25 -25 -26 -26 -26 -26 -26 -25 -25 -25 -25 -25 -25 -25 -25 -25 -26 -26 -26 -26 -26 -26 -26 -26 -26 -26 -26 -27 -27 -27 -27 -27 -27 -27 -27 -26 -27 -27 -27 -27 -27 -27 -27 -27 -27 -27 -27 -27 -27 -27 -27 -27 -28
-25 -25 -25 -25 -25 -25 -26 -26 -26 -26 -26 -26 -26 -26 -26 -26 -26 -26 -26 -26 -26 -26 -26 -26 -26 -26 -26 -26 -26 -26 -26 -26 -26 -26 -27 -27 -27 -27 -27 -27 -27 -27 -27 -27 -27 -27 -27 -27 -27 -27 -27 -27 -27 -28 -28 -27 -27 -27 -28 -28 -28 -28 -28
-26 -26 -26 -26 -26 -26 -26 -26 -26 -26 -27 -27 -27 -27 -27 -27 -27 -27 -27 -27 -26 -26 -26 -26 -26 -26 -26 -26 -26 -26 -26 -27 -27 -27 -27 -27 -27 -27 -27 -27 -27 -27 -27 -27 -27 -27 -27 -27 -27 -27 -28 -28 -28 -28 -28 -28 -28 -28 -28 -28 -28 -28 -28
-26 -26 -26 -27 -27 -27 -27 -27 -27 -27 -27 -27 -27 -27 -27 -27 -27 -27 -27 -27 -27 -27 -27 -27 -27 -27 -27 -27 -27 -27 -27 -27 -27 -27 -27 -27 -27 -27 -27 -27 -27 -27 -27 -27 -27 -27 -27 -27 -27 -28 -28 -28 -28 -28 -28 -28 -28 -28 -28 -28 -28 -28 -29
-27 -27 -27 -27 -27 -27 -27 -27 -27 -27 -27 -27 -27 -27 -27 -27 -27 -27 -27 -27 -27 -27 -27 -27 -27 -27 -27 -27 -27 -27 -27 -27 -27 -27 -27 -27 -27 -27 -27 -27 -27 -28 -28 -28 -28 -28 -27 -27 -28 -28 -28 -28 -28 -28 -28 -28 -29 -29 -28 -28 -28 -28 -29
-27 -27 -27 -27 -27 -28 -28 -28 -28 -28 -28 -27 -27 -28 -28 -28 -28 -28 -27 -27 -27 -27 -27 -27 -27 -27 -27 -28 -27 -27 -27 -27 -27 -27 -27 -28 -28 -28 -28 -28 -28 -28 -28 -28 -28 -28 -28 -28 -28 -28 -28 -29 -29 -29 -29 -29 -29 -29 -29 -29 -29 -29 -29
-27 -27 -27 -27 -27 -28 -28 -28 -28 -28 -28 -28 -28 -28 -28 -28 -28 -28 -28 -27 -27 -28 -28 -28 -28 -28 -28 -28 -28 -28 -28 -28 -28 -28 -28 -28 -28 -28 -28 -28 -28 -28 -28 -28 -28 -28 -28 -28 -28 -28 -28 -29 -29 -29 -29 -29 -29 -29 -29 -29 -29 -29 -29
-27 -27 -27 -27 -27 -27 -27 -28 -28 -28 -28 -28 -28 -28 -28 -28 -28 -28 -28 -28 -28 -28 -28 -28 -28 -28 -28 -28 -28 -28 -28 -28 -28 -28 -28 -28 -28 -28 -28 -28 -28 -28 -28 -28 -28 -28 -28 -28 -28 -29 -29 -29 -29 -29 -29 -29 -29 -29 -29 -29 -29 -29 -29
-27 -27 -27 -27 -27 -27 -27 -27 -28 -28 -28 -28 -28 -28 -28 -28 -28 -28 -28 -28 -28 -28 -28 -28 -28 -28 -28 -28 -28 -28 -28 -28 -28 -28 -28 -28 -28 -28 -28 -28 -28 -28 -28 -28 -28 -28 -28 -28 -29 -29 -29 -29 -29 -29 -29 -29 -29 -29 -29 -29 -29 -29 -29
-27 -27 -27 -27 -27 -27 -27 -28 -28 -28 -28 -28 -28 -28 -28 -28 -28 -28 -28 -28 -28 -28 -28 -29 -29 -29 -29 -29 -29 -29 -29 -29 -29 -29 -28 -28 -28 -28 -28 -28 -28 -28 -28 -29 -29 -29 -29 -29 -29 -29 -29 -29 -29 -29 -29 -29 -29 -29 -29 -29 -29 -29 -29
-27 -27 -27 -27 -27 -27 -27 -27 -28 -28 -28 -28 -28 -28 -29 -29 -28 -28 -28 -28 -29 -29 -29 -29 -29 -29 -29 -29 -29 -29 -29 -29 -29 -29 -29 -29 -28 -28 -28 -28 -28 -29 -29 -29 -29 -29 -29 -29 -29 -29 -29 -29 -29 -29 -29 -29 -29 -29 -29 -29 -29 -29 -29
-27 -27 -27 -27 -27 -27 -27 -27 -28 -28 -28 -28 -28 -29 -29 -29 -29 -29 -29 -29 -29 -29 -29 -29 -29 -29 -29 -29 -29 -29 -29 -29 -29 -29 -29 -29 -29 -29 -29 -29 -29 -29 -29 -29 -29 -29 -29 -29 -29 -29 -29 -29 -29 -29 -29 -29 -29 -29 -29 -29 -30 -30 -30
-27 -27 -27 -27 -27 -27 -27 -28 -28 -28 -28 -28 -29 -29 -29 -29 -29 -29 -29 -29 -29 -29 -29 -29 -30 -30 -30 -30 -30 -30 -30 -30 -30 -29 -29 -29 -29 -29 -29 -29 -29 -29 -29 -29 -29 -29 -29 -29 -29 -29 -29 -29 -30 -30 -30 -30 -29 -29 -29 -30 -30 -30 -30
-27 -27 -27 -27 -27 -27 -27 -27 -28 -28 -28 -29 -29 -29 -30 -30 -30 -30 -30 -29 -29 -29 -30 -30 -30 -30 -30 -30 -30 -30 -30 -30 -30 -30 -30 -29 -29 -29 -29 -29 -29 -29 -29 -29 -29 -29 -29 -29 -29 -30 -30 -30 -30 -30 -30 -30 -30 -30 -30 -30 -30 -30 -30
-28 -27 -27 -27 -27 -28 -28 -28 -28 -29 -29 -29 -30 -30 -30 -30 -31 -31 -31 -30 -30 -30 -30 -30 -30 -30 -30 -31 -31 -31 -30 -30 -30 -30 -30 -30 -30 -30 -30 -30 -30 -30 -29 -29 -29 -30 -30 -30 -30 -30 -30 -30 -30 -30 -30 -30 -30 -30 -30 -30 -30 -30 -30
-28 -28 -28 -28 -28 -28 -29 -29 -29 -30 -30 -30 -31 -31 -31 -31 -32 -32 -32 -31 -31 -31 -31 -31 -30 -30 -31 -31 -31 -31 -31 -31 -30 -30 -30 -30 -30 -30 -30 -30 -30 -30 -30 -30 -30 -30 -30 -30 -30 -30 -30 -30 -30 -30 -30 -30 -31 -31 -31 -31 -31 -31 -31
-28 -29 -29 -29 -29 -30 -30 -30 -31 -31 -31 -31 -32 -32 -32 -32 -33 -33 -32 -32 -32 -32 -32 -31 -31 -31 -31 -32 -32 -32 -31 -31 -31 -31 -31 -30 -30 -30 -30 -30 -30 -30 -30 -30 -30 -30 -30 -30 -31 -31 -31 -31 -31 -31 -31 -31 -31 -31 -31 -31 -31 -31 -31
-30 -30 -30 -30 -30 -31 -31 -32 -32 -32 -32 -33 -33 -33 -33 -33 -33 -33 -33 -33 -33 -33 -32 -32 -32 -31 -32 -32 -32 -32 -32 -32 -31 -31 -31 -31 -31 -31 -31 -31 -31 -31 -31 -31 -31 -31 -31 -31 -31 -31 -31 -31 -31 -31 -31 -32 -32 -32 -32 -32 -32 -32 -32
-31 -31 -31 -31 -31 -32 -32 -32 -33 -33 -33 -33 -33 -33 -33 -34 -34 -34 -34 -34 -33 -33 -33 -33 -32 -32 -32 -33 -32 -32 -32 -32 -32 -32 -32 -31 -31 -31 -31 -31 -31 -31 -31 -31 -31 -31 -31 -31 -31 -31 -31 -32 -32 -32 -32 -32 -33 -33 -33 -33 -33 -33 -32
-32 -32 -32 -32 -32 -32 -33 -33 -34 -34 -34 -34 -34 -34 -34 -34 -34 -34 -34 -34 -34 -34 -33 -33 -33 -33 -33 -33 -33 -32 -32 -32 -32 -32 -32 -32 -32 -31 -31 -31 -31 -31 -31 -31 -31 -31 -31 -32 -32 -32 -32 -32 -32 -32 -32 -33 -33 -33 -33 -33 -33 -33 -33
-33 -33 -33 -33 -33 -33 -34 -34 -35 -35 -35 -34 -34 -34 -34 -34 -34 -34 -35 -35 -34 -34 -34 -34 -34 -33 -33 -33 -33 -33 -33 -33 -33 -33 -32 -32 -32 -32 -32 -32 -32 -32 -31 -31 -31 -32 -32 -32 -32 -32 -32 -32 -32 -33 -33 -33 -33 -34 -34 -34 -33 -33 -33
-33 -33 -33 -34 -34 -35 -35 -35 -35 -35 -35 -35 -35 -35 -34 -34 -34 -35 -35 -35 -35 -35 -34 -34 -34 -34 -34 -33 -33 -33 -33 -33 -33 -33 -33 -32 -32 -32 -32 -32 -32 -32 -32 -32 -32 -32 -32 -32 -32 -32 -33 -33 -33 -33 -34 -34 -34 -34 -34 -34 -34 -34 -34
-34 -34 -34 -34 -35 -35 -36 -36 -36 -36 -36 -35 -35 -35 -35 -35 -35 -35 -35 -35 -35 -35 -35 -35 -35 -34 -34 -34 -34 -33 -33 -33 -33 -33 -33 -33 -33 -32 -32 -32 -32 -32 -32 -32 -32 -32 -33 -33 -33 -33 -33 -33 -34 -34 -34 -34 -34 -34 -34 -34 -34 -34 -34
-35 -35 -35 -35 -36 -36 -36 -36 -36 -36 -36 -36 -36 -36 -35 -35 -35 -35 -35 -35 -35 -35 -35 -35 -35 -35 -35 -34 -34 -34 -34 -33 -33 -33 -33 -33 -33 -33 -33 -33 -33 -33 -33 -33 -33 -33 -33 -33 -33 -33 -34 -34 -34 -34 -34 -34 -34 -35 -35 -35 -35 -35 -35
-36 -36 -36 -36 -36 -37 -37 -37 -37 -36 -36 -36 -36 -36 -36 -35 -35 -35 -35 -35 -35 -35 -35 -35 -35 -35 -35 -35 -35 -34 -34 -34 -34 -33 -33 -33 -33 -33 -33 -33 -33 -33 -33 -33 -33 -33 -34 -34 -34 -34 -34 -34 -34 -35 -35 -35 -35 -35 -35 -35 -35 -35 -35
-37 -37 -37 -37 -37 -37 -37 -37 -37 -37 -36 -36 -36 -36 -36 -36 -36 -35 -35 -35 -35 -35 -36 -36 -36 -36 -36 -35 -35 -35 -34 -34 -34 -34 -34 -34 -34 -34 -34 -34 -34 -34 -34 -34 -34 -34 -34 -34 -34 -35 -35 -35 -35 -35 -35 -35 -35 -35 -35 -35 -35 -35 -35
-37 -37 -37 -37 -37 -37 -37 -37 -37 -37 -37 -36 -36 -36 -36 -36 -36 -35 -35 -36 -36 -36 -36 -36 -36 -36 -36 -36 -36 -35 -35 -35 -35 -34 -34 -34 -34 -34 -34 -34 -34 -34 -34 -34 -34 -34 -35 -35 -35 -35 -35 -35 -35 -35 -35 -35 -35 -35 -35 -35 -35 -35 -36
-38 -38 -37 -37 -37 -37 -37 -37 -37 -37 -37 -37 -36 -36 -36 -36 -36 -36 -36 -36 -36 -36 -37 -37 -37 -37 -36 -36 -36 -36 -35 -35 -35 -35 -35 -35 -35 -35 -35 -35 -35 -35 -35 -35 -35 -35 -35 -35 -36 -36 -36 -36 -36 -36 -36 -36 -36 -36 -36 -36 -36 -36 -36
-38 -38 -38 -38 -38 -38 -37 -37 -37 -37 -37 -37 -37 -37 -36 -36 -36 -36 -36 -36 -37 -37 -37 -37 -37 -37 -37 -36 -36 -36 -36 -35 -35 -35 -35 -35 -35 -35 -35 -35 -35 -35 -35 -35 -35 -36 -36 -36 -36 -36 -36 -36 -36 -36 -36 -36 -36 -36 -36 -36 -36 -36 -36
Height
5524 5521 5520 5518 5517 5515 5514 5513 5511 5510 5508 5506 5505 5503 5502 5501 5500 5498 5497 5495 5494 5494 5492 5490 5489 5488 5487 5487 5487 5485 5484 5484 5483 5482 5481 5481 5481 5479 5479 5478 5478 5479 5477 5475 5473 5474 5474 5474 5473 5472 5471 5471 5472 5472 5472 5472 5470 5469 5469 5468 5467 5466 5466
5515 5513 5511 5509 5508 5506 5505 5504 5502 5500 5499 5497 5495 5494 5492 5491 5490 5489 5487 5486 5485 5484 5483 5481 5480 5478 5477 5477 5477 5476 5475 5474 5473 5472 5472 5472 5472 5470 5469 5469 5468 5469 5470 5467 5464 5464 5464 5464 5464 5464 5463 5461 5462 5462 5462 5462 5462 5460 5460 5459 5458 5457 5456
5506 5504 5501 5500 5499 5497 5496 5495 5493 5491 5490 5488 5486 5484 5483 5482 5481 5479 5478 5476 5475 5475 5473 5472 5471 5469 5467 5466 5467 5467 5466 5465 5463 5463 5463 5462 5462 5462 5461 5460 5459 5460 5460 5460 5457 5455 5454 5454 5454 5455 5454 5453 5453 5453 5453 5453 5452 5452 5451 5450 5449 5448 5447
5497 5494 5492 5491 5489 5488 5486 5485 5483 5482 5480 5478 5476 5474 5473 5472 5471 5470 5468 5467 5466 5465 5464 5463 5461 5460 5458 5456 5457 5457 5456 5456 5455 5454 5453 5453 5453 5452 5452 5451 5451 5450 5450 5451 5450 5447 5444 5444 5445 5445 5444 5444 5444 5445 5444 5444 5443 5443 5442 5441 5440 5440 5438
5487 5485 5483 5481 5479 5478 5477 5476 5474 5472 5471 5469 5467 5465 5463 5462 5461 5460 5459 5457 5456 5455 5454 5453 5452 5450 5448 5447 5447 5447 5447 5446 5446 5444 5444 5443 5443 5443 5442 5442 5442 5441 5440 5441 5442 5440 5436 5435 5435 5435 5434 5434 5435 5436 5435 5435 5434 5434 5433 5433 5432 5431 5429
5476 5475 5473 5471 5470 5468 5467 5465 5464 5463 5461 5459 5457 5455 5453 5452 5451 5450 5449 5447 5446 5445 5444 5443 5442 5441 5439 5438 5437 5437 5437 5437 5436 5435 5434 5433 5433 5433 5433 5433 5433 5432 5431 5431 5432 5432 5429 5427 5425 5425 5425 5423 5424 5427 5427 5425 5425 5425 5424 5424 5423 5422 5421
5466 5464 5463 5462 5460 5458 5456 5455 5454 5453 5451 5449 5447 5445 5443 5441 5440 5440 5439 5438 5436 5435 5435 5434 5433 5431 5430 5429 5428 5427 5426 5426 5426 5426 5425 5424 5423 5423 5423 5424 5423 5422 5422 5422 5422 5422 5422 5419 5416 5416 5415 5412 5413 5417 5418 5415 5415 5416 5416 5415 5415 5414 5412
5455 5453 5453 5452 5450 5448 5446 5445 5444 5443 5441 5439 5436 5434 5432 5431 5430 5430 5429 5428 5427 5426 5425 5425 5423 5422 5421 5420 5418 5417 5416 5416 5416 5415 5415 5415 5414 5413 5413 5414 5413 5413 5412 5413 5413 5413 5412 5411 5409 5407 5405 5403 5402 5405 5407 5405 5406 5408 5406 5405 5405 5406 5403
5443 5442 5442 5440 5439 5437 5435 5434 5434 5432 5430 5428 5426 5424 5422 5421 5420 5420 5419 5419 5418 5417 5416 5415 5414 5413 5411 5410 5408 5407 5406 5406 5405 5405 5405 5405 5404 5404 5404 5404 5404 5403 5403 5403 5403 5404 5402 5402 5402 5399 5395 5393 5393 5394 5395 5396 5397 5398 5397 5395 5396 5397 5394
5432 5431 5430 5429 5427 5426 5425 5424 5423 5421 5419 5417 5415 5413 5411 5410 5410 5409 5409 5409 5409 5408 5407 5406 5405 5403 5402 5400 5399 5397 5396 5396 5396 5396 5395 5395 5395 5394 5394 5394 5394 5394 5394 5393 5393 5394 5393 5392 5393 5391 5386 5384 5384 5383 5384 5386 5386 5388 5388 5386 5387 5387 5385
5421 5420 5418 5417 5416 5415 5414 5414 5412 5410 5408 5406 5405 5403 5401 5400 5399 5399 5399 5399 5399 5398 5397 5396 5395 5393 5392 5390 5389 5388 5387 5386 5385 5385 5385 5385 5385 5385 5384 5384 5385 5384 5384 5383 5384 5384 5383 5383 5384 5381 5377 5376 5375 5373 5373 5375 5377 5377 5378 5377 5378 5379 5376
5411 5409 5407 5405 5404 5404 5403 5402 5401 5399 5397 5395 5394 5392 5389 5388 5388 5388 5388 5388 5388 5387 5386 5385 5384 5383 5382 5380 5379 5378 5376 5375 5375 5375 5375 5375 5375 5375 5375 5374 5374 5374 5373 5373 5374 5373 5373 5374 5373 5371 5369 5366 5365 5364 5364 5365 5367 5367 5367 5368 5369 5370 5367
5399 5398 5396 5393 5393 5392 5391 5390 5388 5386 5385 5383 5382 5380 5378 5377 5376 5376 5377 5377 5376 5376 5375 5375 5373 5372 5371 5370 5368 5367 5366 5365 5364 5364 5364 5364 5364 5365 5365 5364 5363 5363 5363 5363 5363 5363 5364 5363 5361 5361 5360 5357 5355 5356 5356 5356 5356 5356 5358 5359 5359 5360 5359
5387 5386 5383 5381 5380 5379 5379 5378 5376 5374 5372 5371 5369 5366 5365 5364 5364 5364 5364 5365 5364 5363 5363 5363 5361 5361 5360 5358 5356 5356 5355 5354 5353 5353 5353 5353 5354 5354 5354 5354 5353 5352 5352 5352 5352 5353 5354 5352 5350 5350 5350 5348 5346 5347 5347 5347 5346 5346 5348 5349 5350 5350 5350
5374 5372 5371 5368 5367 5365 5366 5366 5363 5361 5359 5357 5355 5353 5350 5351 5352 5352 5351 5352 5351 5350 5350 5350 5349 5348 5348 5347 5346 5345 5343 5342 5342 5341 5342 5343 5343 5343 5343 5343 5343 5341 5341 5340 5341 5342 5343 5342 5340 5339 5340 5339 5337 5338 5338 5337 5337 5337 5338 5339 5340 5341 5341
5360 5359 5357 5355 5353 5351 5352 5352 5349 5347 5346 5344 5342 5339 5336 5337 5339 5339 5339 5339 5338 5338 5337 5337 5336 5336 5335 5335 5335 5333 5332 5331 5330 5330 5331 5332 5332 5332 5332 5333 5333 5331 5330 5330 5330 5331 5332 5331 5330 5329 5329 5329 5328 5329 5329 5328 5328 5329 5328 5329 5330 5332 5331
5346 5345 5343 5342 5340 5337 5337 5338 5335 5332 5331 5330 5327 5325 5322 5322 5324 5326 5327 5327 5326 5325 5325 5324 5324 5323 5323 5323 5323 5322 5320 5319 5318 5319 5320 5320 5321 5321 5322 5323 5321 5320 5320 5319 5319 5320 5321 5320 5320 5319 5319 5319 5318 5319 5318 5318 5320 5320 5317 5318 5321 5323 5321
5332 5332 5330 5327 5326 5324 5322 5322 5321 5317 5316 5316 5313 5309 5308 5308 5309 5312 5314 5314 5313 5312 5312 5312 5312 5311 5310 5311 5311 5310 5308 5307 5306 5307 5308 5309 5309 5310 5312 5312 5310 5308 5309 5309 5309 5310 5310 5310 5310 5309 5308 5309 5308 5308 5308 5309 5311 5309 5307 5309 5311 5312 5311
5318 5317 5316 5313 5311 5310 5308 5307 5306 5303 5301 5301 5298 5294 5293 5293 5294 5297 5299 5300 5300 5300 5300 5299 5299 5299 5298 5298 5298 5298 5296 5295 5295 5296 5297 5297 5298 5300 5302 5301 5297 5297 5299 5298 5298 5299 5299 5300 5300 5298 5298 5299 5298 5297 5297 5299 5300 5299 5298 5299 5300 5300 5300
5303 5302 5302 5299 5296 5295 5294 5292 5290 5288 5286 5285 5283 5280 5277 5277 5279 5282 5284 5284 5286 5287 5287 5287 5287 5287 5287 5286 5285 5285 5284 5283 5284 5285 5286 5286 5287 5290 5290 5288 5286 5287 5289 5288 5288 5288 5288 5289 5289 5288 5288 5288 5287 5287 5287 5287 5288 5289 5289 5290 5290 5289 5289
5287 5285 5285 5284 5280 5279 5278 5276 5274 5272 5270 5269 5268 5265 5262 5262 5264 5266 5267 5268 5271 5273 5274 5275 5276 5276 5275 5273 5272 5272 5271 5271 5272 5274 5275 5275 5277 5278 5277 5275 5276 5277 5277 5278 5278 5277 5277 5278 5278 5278 5278 5278 5277 5276 5275 5275 5276 5278 5279 5280 5280 5279 5279
5270 5267 5267 5267 5264 5261 5260 5259 5257 5255 5253 5252 5252 5250 5247 5246 5249 5250 5250 5252 5255 5258 5260 5262 5264 5264 5263 5259 5258 5259 5259 5260 5260 5262 5264 5266 5266 5265 5264 5264 5265 5266 5266 5267 5267 5266 5266 5267 5267 5267 5267 5266 5266 5266 5264 5264 5266 5266 5267 5269 5269 5269 5269
5251 5248 5248 5248 5246 5243 5242 5240 5239 5237 5236 5235 5235 5234 5232 5232 5233 5234 5234 5237 5240 5242 5245 5248 5250 5251 5251 5247 5244 5245 5247 5248 5248 5249 5252 5255 5255 5253 5252 5252 5253 5255 5255 5255 5256 5256 5256 5257 5256 5255 5255 5255 5255 5254 5253 5254 5255 5255 5256 5257 5257 5257 5259
5232 5229 5228 5228 5227 5225 5223 5222 5221 5220 5219 5219 5219 5218 5218 5217 5218 5219 5220 5223 5225 5227 5230 5233 5236 5238 5238 5234 5231 5232 5234 5235 5237 5238 5239 5241 5242 5242 5242 5241 5242 5243 5243 5244 5244 5245 5246 5246 5245 5244 5244 5244 5244 5244 5244 5244 5244 5244 5244 5245 5246 5246 5247
5214 5211 5209 5209 5208 5207 5206 5205 5205 5204 5203 5203 5203 5203 5204 5203 5204 5204 5205 5208 5211 5214 5216 5219 5222 5224 5224 5221 5218 5219 5221 5222 5224 5225 5225 5226 5229 5230 5231 5231 5231 5231 5231 5232 5234 5234 5235 5235 5234 5233 5233 5233 5233 5234 5234 5234 5232 5232 5232 5233 5234 5235 5235
5199 5195 5192 5191 5190 5189 5189 5188 5189 5189 5188 5188 5188 5189 5189 5189 5190 5191 5191 5193 5197 5200 5202 5205 5209 5210 5208 5206 5205 5207 5208 5210 5211 5212 5212 5213 5215 5217 5218 5219 5219 5220 5220 5222 5222 5223 5224 5224 5223 5223 5223 5223 5223 5223 5224 5223 5222 5221 5221 5222 5222 5223 5224
5184 5181 5178 5176 5174 5173 5172 5172 5173 5173 5173 5173 5173 5174 5175 5176 5177 5178 5177 5179 5183 5186 5188 5191 5194 5195 5193 5193 5194 5196 5197 5198 5199 5200 5200 5201 5202 5203 5204 5206 5207 5208 5210 5211 5211 5211 5212 5212 5212 5213 5213 5213 5213 5213 5213 5212 5211 5211 5212 5212 5211 5212 5214
5171 5167 5164 5162 5160 5158 5157 5157 5157 5158 5159 5159 5160 5160 5161 5162 5164 5165 5166 5166 5169 5172 5175 5177 5179 5181 5181 5182 5184 5184 5185 5186 5186 5187 5188 5188 5188 5189 5191 5193 5195 5197 5199 5200 5200 5200 5201 5201 5202 5203 5203 5203 5203 5204 5203 5201 5201 5201 5201 5201 5201 5204 5204
5158 5154 5150 5148 5146 5144 5144 5144 5144 5144 5146 5147 5147 5147 5149 5150 5151 5153 5154 5154 5155 5158 5162 5164 5166 5169 5171 5172 5172 5171 5172 5173 5173 5174 5174 5175 5176 5177 5179 5181 5183 5186 5187 5188 5188 5189 5190 5190 5191 5192 5193 5193 5193 5193 5192 5191 5191 5191 5191 5190 5191 5194 5194
5144 5141 5138 5136 5134 5132 5131 5132 5132 5132 5133 5134 5135 5135 5137 5138 5140 5141 5142 5143 5143 5146 5149 5152 5154 5157 5159 5159 5159 5159 5160 5160 5160 5161 5162 5163 5164 5166 5167 5169 5171 5173 5174 5175 5176 5178 5179 5180 5181 5182 5182 5182 5183 5183 5182 5182 5181 5181 5181 5180 5181 5182 5182
5130 5128 5126 5124 5123 5121 5120 5121 5121 5121 5121 5123 5124 5124 5125 5127 5128 5129 5131 5132 5133 5135 5138 5140 5142 5144 5146 5147 5147 5148 5148 5148 5148 5149 5150 5152 5153 5155 5156 5158 5160 5161 5161 5162 5165 5167 5168 5169 5170 5171 5171 5172 5172 5172 5172 5172 5172 5171 5171 5171 5170 5171 5171
5118 5116 5114 5113 5112 5111 5110 5110 5111 5110 5111 5112 5113 5113 5114 5116 5118 5119 5120 5121 5123 5125 5127 5128 5130 5132 5133 5135 5136 5136 5136 5136 5137 5138 5139 5141 5143 5144 5146 5147 5148 5148 5150 5152 5154 5156 5157 5159 5160 5160 5161 5161 5162 5162 5162 5162 5162 5162 5161 5161 5160 5160 5160
5107 5105 5104 5103 5102 5101 5101 5101 5101 5101 5101 5102 5103 5104 5105 5106 5108 5109 5110 5111 5113 5114 5116 5117 5119 5120 5122 5123 5124 5125 5126 5126 5127 5128 5129 5131 5133 5134 5135 5135 5136 5138 5140 5142 5144 5145 5146 5148 5149 5150 5150 5151 5151 5152 5152 5152 5152 5151 5151 5150 5150 5150 5149
5096 5095 5094 5093 5092 5092 5091 5092 5092 5092 5092 5093 5094 5094 5095 5097 5098 5100 5100 5101 5103 5104 5105 5107 5108 5110 5111 5113 5114 5115 5116 5116 5117 5118 5119 5121 5122 5123 5124 5125 5126 5128 5130 5132 5133 5135 5136 5138 5139 5140 5141 5141 5141 5142 5142 5142 5142 5141 5140 5140 5140 5140 5139
5086 5085 5084 5083 5083 5083 5082 5083 5083 5083 5083 5084 5085 5085 5086 5088 5089 5090 5091 5092 5093 5094 5096 5097 5099 5101 5102 5103 5105 5105 5106 5106 5107 5108 5110 5111 5112 5113 5115 5116 5118 5119 5120 5122 5123 5126 5127 5128 5129 5130 5131 5131 5132 5132 5132 5132 5132 5131 5130 5130 5130 5130 5129
5077 5076 5075 5074 5074 5074 5074 5074 5075 5075 5075 5076 5076 5077 5078 5079 5079 5080 5081 5083 5084 5085 5087 5089 5091 5092 5093 5094 5095 5096 5096 5097 5098 5099 5100 5101 5103 5104 5106 5107 5109 5110 5111 5113 5115 5116 5117 5118 5120 5121 5121 5122 5122 5122 5122 5122 5121 5121 5120 5120 5120 5120 5120
Wind_Speed
64 65 66 67 67 68 68 68 68 68 69 69 69 69 69 68 68 68 68 69 69 68 68 68 69 69 70 69 69 69 69 69 69 69 69 67 66 66 66 66 66 65 65 66 66 66 65 65 64 63 63 63 62 61 61 61 61 61 60 60 61 61 62
64 65 66 67 67 68 68 68 68 68 69 69 69 69 69 69 68 68 68 68 68 68 68 68 68 68 69 69 68 69 69 69 68 68 67 66 65 65 66 66 66 65 65 65 66 66 66 66 65 64 64 63 62 62 62 61 61 61 61 61 62 63 63
65 66 67 67 68 68 69 69 69 69 69 69 69 69 69 69 69 69 69 68 68 67 67 67 67 68 68 68 68 68 68 68 68 67 66 66 66 65 66 66 66 66 66 65 66 66 66 66 66 65 64 64 63 62 62 62 61 61 62 63 63 64 64
66 67 68 68 69 69 70 70 70 70 69 70 70 70 70 70 70 69 69 68 68 68 68 67 67 67 67 67 67 67 67 67 67 67 66 66 66 66 66 66 66 66 66 65 65 65 66 66 66 65 65 64 63 63 62 62 62 62 63 63 64 64 64
68 69 69 69 70 70 70 70 70 70 70 70 71 71 71 71 71 70 70 69 69 69 68 68 67 67 67 67 67 67 66 66 66 66 66 66 67 66 66 66 65 65 66 66 65 65 66 66 65 65 65 65 64 63 63 63 63 64 64 64 64 63 63
70 70 70 70 70 70 70 70 70 70 70 70 71 71 71 71 71 71 70 70 70 70 69 68 68 67 67 67 67 67 66 66 66 66 66 67 67 66 66 66 65 65 65 66 66 65 65 66 66 65 65 65 65 64 64 64 65 65 65 64 64 63 62
72 72 71 71 71 70 69 69 69 69 69 69 69 70 70 70 70 70 70 70 70 70 69 69 69 69 68 68 68 68 68 68 67 67 67 67 67 67 66 65 66 66 65 66 66 66 65 65 66 66 65 66 66 65 64 65 65 65 65 64 63 62 61
72 72 72 72 71 70 69 69 69 68 68 68 68 68 68 68 69 69 69 69 69 69 69 69 69 69 69 69 69 69 69 69 69 68 68 67 67 67 67 66 66 66 66 66 66 66 66 66 66 66 66 67 67 66 65 66 66 64 64 64 62 61 60
73 73 73 73 72 71 70 70 69 69 68 68 68 68 67 67 67 67 67 67 67 68 68 68 68 68 69 69 69 70 70 70 69 68 68 67 67 67 67 67 67 67 66 66 66 66 66 66 66 66 67 68 68 67 66 66 65 64 63 63 62 60 60
74 74 74 73 73 72 72 71 70 70 70 69 69 69 68 68 67 67 67 66 66 66 67 67 67 67 68 69 69 70 70 70 69 69 68 68 67 67 67 67 67 67 66 66 67 66 66 66 65 66 68 68 68 68 67 66 65 64 63 63 61 60 60
74 74 74 74 73 73 73 72 72 72 72 72 71 70 70 69 68 68 68 67 67 67 67 67 67 67 67 68 69 69 70 70 70 69 69 68 68 67 67 67 66 66 66 66 67 67 67 66 66 66 68 68 68 68 68 66 65 64 63 62 61 59 60
75 75 75 75 74 74 73 73 73 73 74 74 73 72 71 71 70 70 70 70 70 69 69 69 68 68 68 68 69 69 70 70 70 70 70 69 68 68 67 67 66 66 67 67 67 67 67 67 66 67 67 68 68 68 67 66 65 64 63 62 61 59 59
78 78 78 78 77 76 76 75 75 76 76 76 76 75 75 75 74 74 74 75 75 75 74 72 71 70 69 69 70 70 70 70 70 70 70 69 69 68 67 67 67 67 67 67 67 67 67 67 68 67 67 67 67 67 66 66 65 64 63 62 60 59 59
80 81 81 81 81 80 80 79 79 80 80 80 80 80 80 80 80 81 81 81 80 79 78 77 75 74 72 72 72 72 72 72 71 71 70 70 69 68 68 67 67 67 67 67 67 67 67 67 68 67 66 67 67 66 65 65 65 65 63 62 61 60 59
82 82 83 83 83 83 82 81 82 82 83 84 85 86 86 86 86 86 85 83 80 79 79 78 77 76 75 74 74 74 74 73 73 71 71 70 69 69 69 68 68 67 67 67 67 67 66 67 67 67 66 66 66 65 65 65 65 65 64 62 61 60 60
85 85 85 85 86 86 85 84 84 84 84 85 87 88 89 89 88 87 85 82 80 78 78 78 77 77 76 75 74 74 74 74 73 72 71 70 70 70 70 69 68 68 67 67 67 67 66 66 67 67 66 66 66 65 65 66 65 65 65 64 62 61 61
85 85 86 86 86 87 86 86 86 87 87 87 88 88 89 89 87 85 83 82 80 79 78 77 77 76 75 74 73 74 74 74 73 72 71 71 71 71 70 69 68 68 67 68 68 67 66 66 66 67 67 66 66 66 66 66 65 65 66 65 63 62 62
86 86 86 86 87 87 87 87 87 88 88 88 89 90 90 89 88 86 85 83 82 80 79 77 76 76 75 74 72 73 74 74 73 73 72 71 71 71 70 69 69 69 68 68 68 67 67 67 67 67 67 67 67 67 67 66 65 66 67 66 64 64 64
88 87 88 88 89 89 89 89 89 90 90 89 90 90 90 90 89 87 86 84 83 81 80 78 76 75 74 73 72 73 74 74 74 73 72 72 71 70 69 69 70 70 69 68 68 67 67 67 67 67 67 67 67 68 68 67 66 67 68 67 66 66 65
89 90 90 90 91 91 91 92 92 92 91 91 90 91 90 90 89 87 86 85 83 82 80 79 77 75 74 73 73 73 75 75 75 74 73 73 72 70 69 70 71 70 69 69 69 68 68 67 67 68 68 68 68 69 69 69 68 68 68 68 67 67 67
92 93 93 93 94 95 95 95 94 94 93 92 91 90 90 90 89 87 86 85 83 82 81 80 78 77 76 76 75 75 75 76 76 75 74 73 72 70 70 71 70 70 70 70 69 69 69 68 68 68 68 69 69 69 70 70 70 70 69 69 68 68 68
96 96 96 96 97 98 98 97 96 95 94 92 91 89 89 88 87 86 86 85 84 82 81 80 79 78 78 79 79 78 77 77 77 76 75 73 72 71 70 70 70 70 70 70 70 70 70 70 69 69 69 70 70 71 71 71 71 71 70 70 69 69 69
98 99 99 98 98 99 98 97 96 94 92 91 89 87 86 86 85 84 84 84 83 82 82 80 79 79 78 79 80 81 80 78 78 77 76 74 72 71 70 70 70 69 69 69 70 71 71 70 70 70 70 70 71 71 72 72 71 71 71 70 70 69 69
99 99 99 98 97 96 95 94 92 90 88 86 85 84 83 83 83 83 83 82 82 82 82 81 80 80 79 78 80 82 81 80 79 78 77 76 74 72 70 70 69 68 68 68 69 70 70 70 70 70 70 71 71 71 71 71 71 71 71 70 70 69 68
95 95 95 94 93 93 92 90 88 86 84 81 80 79 79 80 81 82 82 82 81 81 81 80 80 80 80 80 81 82 82 82 81 80 80 79 77 74 72 70 69 69 68 68 68 69 70 70 70 71 70 70 70 70 70 70 70 69 69 69 68 68 67
87 87 87 88 88 88 88 87 85 82 80 78 76 76 76 78 79 81 83 83 82 82 81 79 78 78 79 81 81 81 81 81 79 79 78 78 77 75 72 70 70 70 69 68 68 69 70 70 70 70 70 69 69 69 69 68 68 68 68 67 66 66 65
81 81 81 81 82 83 83 82 80 79 77 76 74 73 73 75 77 79 81 82 82 82 81 80 79 79 80 81 80 80 80 79 78 77 76 76 75 75 73 71 70 70 69 69 69 70 70 70 70 70 69 69 69 69 68 68 67 67 66 65 65 65 64
77 76 76 76 76 76 76 76 75 74 73 73 72 72 72 72 74 76 79 80 81 80 80 79 79 80 81 81 81 80 80 79 79 78 76 76 76 75 73 71 70 69 69 69 70 71 70 70 70 69 69 69 68 67 67 66 66 65 65 65 64 63 63
74 73 72 72 71 71 70 69 69 69 69 69 70 70 70 70 71 73 75 78 80 80 79 78 77 76 76 77 78 80 80 81 81 81 80 79 77 76 74 72 71 70 70 71 71 71 70 70 70 69 69 68 67 66 65 64 64 64 64 64 64 63 62
72 70 69 67 66 66 65 64 64 65 66 66 67 68 68 68 69 69 71 73 75 76 77 77 76 74 72 72 73 74 76 78 79 80 80 80 78 77 76 74 73 72 72 72 71 70 69 69 69 69 68 67 65 64 64 64 63 63 63 63 63 62 62
70 67 65 64 62 61 61 60 60 61 62 62 63 65 65 65 65 66 67 68 69 70 70 71 72 71 71 70 70 71 72 74 76 77 77 77 76 75 74 73 72 72 72 71 70 69 69 69 68 68 67 66 65 64 64 63 63 63 62 62 63 62 62
67 64 62 60 59 58 57 57 57 58 58 59 60 61 62 62 62 63 63 64 64 64 64 64 65 66 66 67 68 69 71 73 74 74 74 74 73 72 71 70 70 70 70 69 68 68 68 67 67 66 65 65 64 63 63 62 62 62 62 62 62 62 62
64 62 60 58 57 56 55 54 54 55 55 55 56 57 58 58 58 59 59 60 60 59 59 59 59 61 62 64 65 66 68 70 71 72 72 72 71 69 68 68 68 68 67 67 66 67 66 66 66 65 64 64 63 63 62 62 61 62 62 62 62 61 61
61 59 58 56 55 54 54 53 52 52 53 53 53 54 54 55 55 55 55 56 56 56 56 56 56 57 59 61 62 63 65 66 67 68 69 69 68 67 65 65 64 64 64 65 65 65 65 65 64 64 63 62 62 61 61 61 61 62 62 62 61 61 61
57 57 56 54 53 52 52 51 51 50 50 51 51 51 52 52 52 52 52 53 53 53 53 53 54 54 55 57 58 60 61 62 63 63 63 64 63 63 62 62 61 62 62 63 63 63 63 63 63 62 62 61 61 61 61 61 61 61 61 61 60 60 60
53 53 53 53 52 51 50 50 49 48 48 48 49 49 49 49 49 49 49 50 50 50 50 50 51 52 53 54 55 56 57 58 58 58 58 58 58 58 58 58 59 59 60 60 61 61 62 62 62 61 61 61 61 61 61 60 60 60 59 59 59 59 59
Wind_Direction
279 279 280 280 280 280 280 280 280 280 280 280 280 280 280 280 281 281 281 281 281 281 281 281 280 280 280 280 279 279 278 278 277 277 277 277 278 277 277 277 277 276 276 276 276 276 275 275 274 274 275 275 275 275 275 275 275 276 277 277 278 278 278
279 279 280 280 280 280 280 280 280 279 280 280 280 280 280 280 280 280 280 280 280 280 280 280 279 279 279 279 278 278 278 277 277 276 276 277 277 277 277 277 276 276 276 276 276 276 275 274 274 273 274 275 275 275 275 275 276 276 277 278 279 280 280
280 280 280 280 280 279 279 279 279 279 279 279 279 279 279 279 279 278 278 278 278 278 278 278 278 278 278 278 277 277 277 277 277 277 277 276 276 276 276 276 276 276 276 275 275 275 275 274 273 273 273 274 274 275 275 276 277 277 278 279 280 280 280
281 280 280 280 280 280 280 279 279 279 279 279 279 279 278 278 278 277 277 277 277 277 277 277 277 277 277 277 277 277 277 277 277 277 277 277 277 276 276 276 276 276 276 275 275 275 274 274 274 274 274 274 274 275 276 276 277 278 279 279 280 280 279
281 281 281 281 281 281 281 281 281 280 280 280 279 278 278 277 277 277 277 276 276 276 276 276 276 276 276 276 277 277 277 277 278 278 278 278 277 277 277 277 277 276 276 275 275 274 273 274 274 274 274 274 274 275 276 276 277 278 279 279 279 279 278
281 281 280 281 281 281 281 281 281 281 280 280 279 279 278 278 277 277 276 276 276 276 276 276 276 276 276 276 277 277 277 277 277 277 277 277 277 277 277 277 277 276 275 275 275 274 273 273 274 274 274 275 274 275 276 276 277 277 278 279 278 278 277
281 280 280 280 280 281 280 280 280 280 279 279 279 279 278 278 277 277 277 276 276 276 276 276 276 276 276 276 276 276 276 276 276 276 276 277 277 278 278 277 277 276 275 274 274 273 273 273 274 274 275 275 275 276 276 276 276 277 278 278 277 276 276
281 281 280 280 280 280 279 279 279 279 278 277 277 277 277 277 277 277 277 277 277 277 276 276 276 276 276 276 276 276 275 276 276 276 276 276 277 277 277 277 276 275 275 274 273 273 273 273 273 274 275 275 276 276 276 276 276 277 277 276 275 275 275
282 281 281 280 279 279 278 278 278 277 277 276 275 275 275 275 276 276 277 277 277 277 277 277 277 277 276 276 275 275 275 275 275 275 276 276 276 276 276 276 275 275 275 274 274 273 273 273 273 274 275 275 276 276 276 276 276 276 275 275 275 274 273
281 281 280 280 279 278 277 277 276 275 275 274 274 274 274 274 274 275 275 276 277 277 277 277 277 277 276 275 275 275 275 275 274 274 274 274 274 275 275 275 275 275 274 273 273 273 273 273 273 274 274 275 275 275 275 275 275 275 274 273 273 273 273
281 281 280 279 279 278 277 276 275 274 273 273 272 272 272 273 273 273 274 275 275 276 276 276 276 276 276 276 275 275 274 274 273 273 273 273 273 274 274 274 274 274 273 273 272 273 273 273 273 273 273 274 274 274 274 274 274 274 273 272 272 273 273
280 280 279 279 279 278 277 276 275 274 273 272 272 271 271 272 273 274 275 275 275 275 275 275 275 276 277 277 276 276 275 274 273 273 272 272 272 272 273 273 273 272 272 272 272 272 272 273 273 272 272 273 272 272 273 273 273 272 272 272 273 273 274
279 278 278 277 277 277 277 276 275 273 273 272 271 271 271 272 273 275 276 276 276 274 274 274 274 275 276 276 276 276 275 274 273 272 272 271 271 271 271 271 271 271 271 271 271 271 272 272 272 271 271 271 271 271 272 272 272 272 272 272 273 273 274
279 278 278 277 277 276 275 275 274 273 273 272 272 272 272 272 273 275 277 277 276 274 273 273 273 273 274 275 275 276 275 274 273 272 271 271 270 270 270 270 270 271 271 271 271 271 271 271 271 271 270 270 270 271 271 271 271 272 272 273 273 274 274
279 279 278 278 277 276 276 275 274 273 272 272 272 272 273 273 274 276 277 277 276 274 273 272 272 272 273 273 274 274 274 274 273 272 271 270 270 270 269 269 270 270 271 271 271 271 271 271 271 271 270 270 270 270 271 271 271 272 273 273 273 274 274
279 279 279 278 278 278 277 277 276 275 274 273 273 273 273 274 274 275 276 276 275 274 273 272 271 271 272 272 273 273 274 274 273 272 270 270 269 269 269 269 269 269 270 270 271 271 271 270 270 270 270 270 270 270 270 270 271 272 272 272 272 273 274
280 280 279 279 279 279 278 278 277 276 276 275 275 274 274 274 274 274 275 275 275 274 273 272 271 271 271 271 271 272 273 273 272 271 270 269 269 268 269 269 269 269 269 269 270 270 270 270 270 269 269 269 270 270 270 270 270 271 271 271 272 272 273
281 281 280 280 279 279 279 278 277 277 276 276 275 274 274 274 274 273 273 273 273 273 272 271 270 270 270 270 270 271 272 272 271 271 270 269 269 268 268 268 268 268 268 268 269 269 269 269 269 269 269 269 269 269 269 269 270 270 270 271 272 272 272
281 281 280 280 279 279 278 278 277 276 276 275 274 274 273 273 272 272 272 271 271 271 270 270 269 269 269 269 269 270 270 270 270 270 270 269 269 269 269 269 268 268 268 268 268 268 268 268 268 268 269 269 269 269 269 269 269 269 270 271 272 272 272
281 281 280 280 279 278 278 277 276 275 275 274 273 272 272 271 271 271 270 269 269 268 268 268 267 267 267 268 269 269 269 269 269 269 269 269 269 270 269 269 268 269 269 268 268 269 269 269 268 268 268 269 269 269 269 269 269 269 270 271 272 272 273
282 281 280 280 279 278 277 276 275 275 274 273 272 271 270 270 269 269 268 267 267 266 266 265 265 265 265 266 267 267 268 268 267 267 268 269 269 270 269 269 269 270 269 269 269 269 269 269 269 269 268 268 268 268 269 269 269 269 269 270 271 272 273
283 282 281 280 279 277 276 275 274 274 273 272 271 269 268 267 267 266 266 265 265 264 264 263 263 263 264 265 265 265 266 266 266 266 266 267 268 269 269 269 270 270 270 270 269 269 268 268 269 268 268 268 268 268 268 269 269 270 271 271 271 271 272
283 282 281 279 278 277 276 275 274 273 272 271 270 268 267 265 264 263 263 263 263 262 262 261 261 261 263 265 266 265 265 265 266 266 266 266 267 268 268 269 270 270 271 271 270 269 269 269 268 267 267 267 267 268 268 269 270 270 271 271 272 272 272
283 282 281 279 278 277 276 275 274 273 272 271 269 267 265 264 262 261 261 260 260 261 261 260 260 260 262 263 264 265 265 265 265 266 266 266 266 266 267 269 270 271 272 272 272 271 269 268 267 267 267 267 267 268 269 270 271 271 271 272 272 273 273
284 282 281 280 278 277 276 275 273 272 271 270 268 266 264 262 261 260 259 259 259 259 260 260 260 261 262 262 263 264 265 266 266 266 266 266 266 266 267 268 270 271 272 273 273 271 269 268 267 266 266 267 268 269 269 270 270 271 271 272 273 273 274
284 283 282 281 279 278 276 274 273 271 270 269 267 266 263 261 259 259 259 259 258 258 259 260 260 261 261 262 263 264 265 266 267 267 267 267 266 266 266 267 269 270 272 273 273 272 269 267 266 265 266 266 267 268 268 269 269 270 272 273 274 274 275
284 284 283 282 280 278 276 274 272 269 268 267 266 265 263 261 260 258 259 259 259 259 259 259 259 259 259 261 262 263 264 266 267 267 267 267 267 266 266 267 268 270 272 273 272 271 268 266 265 265 265 266 266 267 268 269 270 271 272 273 274 275 276
285 285 284 283 281 279 276 274 271 268 266 265 264 264 263 262 261 259 259 259 260 260 261 260 259 259 259 261 262 263 264 265 266 266 266 266 266 266 266 267 268 269 271 271 269 268 266 265 264 264 264 265 266 267 268 269 270 271 272 272 273 274 274
286 286 285 283 282 279 276 273 271 268 266 264 263 263 263 262 262 261 260 260 260 260 260 261 261 261 261 262 262 263 263 263 264 264 265 265 265 266 265 265 266 267 268 267 266 265 264 263 262 263 263 265 266 267 268 269 270 271 271 272 273 273 273
287 285 284 283 281 279 276 273 271 268 266 264 263 263 263 263 263 262 262 262 261 261 261 261 261 262 262 262 262 262 263 263 263 263 264 264 265 264 264 264 265 265 265 265 264 263 262 261 261 262 263 264 265 266 267 268 270 270 271 272 273 273 273
286 284 283 281 280 278 276 274 271 269 267 265 264 264 263 263 263 263 263 263 263 263 263 262 262 261 261 261 261 261 262 262 262 263 263 263 263 263 263 263 264 264 263 263 263 262 260 260 261 262 263 264 265 266 268 269 270 271 272 273 273 273 273
283 283 282 281 279 278 276 274 272 270 268 266 265 264 264 264 264 264 264 265 265 265 264 263 262 261 260 259 259 260 260 261 261 262 262 262 263 263 263 263 263 263 263 263 262 260 259 259 260 261 263 264 266 267 268 270 271 272 273 273 273 273 273
281 281 281 280 279 278 276 274 273 271 269 268 266 266 265 265 264 265 265 265 265 265 264 263 261 260 259 258 258 259 261 262 262 262 262 262 262 262 263 263 263 263 263 262 260 258 258 258 260 262 263 265 267 268 269 271 272 273 273 273 273 273 273
280 280 279 279 278 277 276 275 273 272 271 269 268 267 266 266 265 265 264 264 264 263 263 261 260 259 258 258 258 259 261 262 263 263 263 263 263 262 262 263 263 263 262 260 259 257 257 259 260 262 264 266 268 269 271 272 272 273 273 273 273 273 273
280 279 278 278 277 277 276 275 274 273 271 270 269 268 267 266 266 265 264 263 263 262 261 260 259 259 259 258 259 259 261 262 264 264 264 264 263 263 262 262 262 262 260 259 258 257 258 259 261 263 265 267 268 270 271 272 273 273 273 273 273 273 273
280 278 277 277 277 276 276 275 274 273 272 271 270 269 268 267 266 265 264 263 261 261 260 260 259 259 259 259 259 260 261 262 263 264 264 264 263 263 262 262 261 260 259 258 258 258 259 260 262 264 266 268 269 270 271 272 272 272 272 272 272 272 272